Portada
METAR-TAF:

METAR-TAF

Aeropuertos :

West Memphis, Arkansas, Estados Unidos

latitud: 35-08N, longitud: 090-14W, altitud: 65 m

Observación

El informe se hizo hace 1 hora y 4 minutos, a las 07:53 UTC
Viento 5 kt del sureste
Temperatura 21°C
Humedad 94%
Presión 1014 hPa
Visibilidad: 16.1 km
Cielo despejado

METAR: KAWM 060753Z AUTO 13005KT 10SM CLR 21/20 A2995 RMK AO2 SLP137 T02060200

Hora: 03:57 (08:57 UTC)


TAF: falta

Observaciones y pronósticos meteorológicos de más de 4000 aeropuertos (mensajes METAR y TAF).

Los puntos amarillos y rojos representan las estaciones disponibles.

Ponga el ratón en el punto deseado para ver el nombre de la estación.

Haga clic para ver las observaciones y los pronósticos meteorológicos.

Para cambiar el mapa : haga clic en los botones verdes con una cruz de color negro para hacer un zoom, en el botón verde con un guión para alejar o en las flechas verdes para mapas adyacentes.


METAR-TAF: